{"data":{"norad_id":48328,"epoch":"2026-05-25T03:08:54.230208Z","epoch_age_seconds":60374,"freshness":"FRESH","line1":"1 48328U 21036BE  26145.13118322  .00000633  00000+0  32177-4 0  9991","line2":"2 48328  53.1611 105.4557 0001289  91.8224 268.2925 15.31692507279749","mean_motion":15.31692507,"eccentricity":0.0001289,"inclination_deg":53.1611,"raan_deg":105.4557,"arg_perigee_deg":91.8224,"mean_anomaly_deg":268.2925,"bstar":3.2177e-5,"rev_number":27974,"period_min":94.013647871165,"perigee_km":469.87950843596,"apogee_km":471.64515468364,"semimajor_km":6848.8993315598,"source":"CELESTRAK","updated_at":"2026-05-25T13:38:16.682801Z"}}